Member area
Imprimable
Liège, 02/05/2021, BEL - Lampiris 15km de Liege Métropole
List of reports > 24.4km - Result
Search: Page: [1]
238 Entries
 
Complains are not accepted anymore. Results are final.
Category
PosNrNameAgeNATTeamTimeTkmMoy.PlaceNameScrCity
1.5100TRILLET DENIS27BELRFCL1:47:334:25 13.611seh1LIÈGE
2.5023DE FROIDMONT GUILLAUME20BEL1:48:384:28 13.482seh2LA REID
3.5261THINES THOMAS28BELLASPORTIVA1:49:544:31 13.323seh3BANNEUX
4.5265JOCKIN FRANÇOIS26BEL1:53:504:40 12.864seh4HERMALLE-SOUS-ARGENTEAU
5.5266SALMIN LOÏC29BELI LOVE RUNNING LIÈGE1:56:324:47 12.565seh5LIÈGE
6.5022DEBATY CHRISTOPHE44BEL4D+1:57:024:48 12.511m406CHAUDFONTAINE
7.5237HUMBLET SIMON20BELROC1:57:224:49 12.476seh7OREYE
8.5057PERIN LOGAN24BEL1:57:254:49 12.477seh8ANDENNE
9.40343DEGRAEVE JÉRÉMIE36BEL1:58:034:51 12.401m359ASSESSE
10.5045SCHOUMACKERS BENOÎT47BEL1:59:094:53 12.291m4510BEN-AHIN
11.5282COURQUIN EDOUARD29FRAULIEGE -2:02:095:01 11.998seh11LIÈGE
12.5059DUMAS JONATHAN33FRAULIEGE -2:02:215:01 11.971m3012BONCELLES
13.5063GENDEBIEN DAVID46BEL2:02:345:02 11.952m4513TIGNEE
14.5206MOYERSOEN BERNARD59BELRFCL2:02:485:02 11.921m5514LIÈGE
15.5246FAGOT LAURENT29BELMCP RCAE2:03:015:03 11.909seh15TILF
16.5248BOUILLON BASTIEN29BELTEAM MCP2:05:165:09 11.6910seh16ESNEUX
17.5064WELSCH SAM22BELULIEGE -2:06:145:11 11.6011seh17CLAVIER
18.5046VERDURE KEVIN35BEL2:07:505:15 11.452m3518LONCIN
19.5094HAWAUX ROGER57BELJIA2:07:505:15 11.452m5519LIEGE
20.5215MOÏSE MARTIN32BELULIEGE -2:07:545:15 11.452m3020LIÈGE
21.5213DESIR COLIN31BEL2:07:545:15 11.453m3021LIÈGE
22.5095GERON DAVID46BELHERVE ATHLÉTISME2:08:105:16 11.423m4522AUBEL
23.5276MALOIR ADRIEN24BEL2:08:235:16 11.4012seh23JUPRELLE
24.5240DEFECHEREUX FABIAN50BELRESA2:08:335:17 11.391m5024ESNEUX
25.5096JANSSEN PIERRE26BELULIÈGE2:08:345:17 11.3913seh25CHAINEUX
26.5041CHAPEAU MATHIEU38BEL2:08:425:17 11.383m3526LIEGE 1
27.5043BELLEFROID JEAN-CHARLES22BELULIEGE -2:09:015:18 11.3514seh27LIERS
28.5050DUPONT JEREMIE39BELULIEGE -2:09:465:20 11.284m3528ANDENNE
29.5176DUFAYS BRUNO26BEL2:10:065:20 11.2515seh29TILFF
30.5253WILLEMS ROMAIN33BEL2:10:175:21 11.244m3030ANGLEUR
31.5038DESILLE FREDERIC49BEL2:10:345:22 11.214m4532RIXENSART
32.5049JACQUEMOT HUGO23FRAULIEGE -2:10:375:22 11.2116seh33LIEGE
33.5078GROULARD LOUIS24BELULIEGE -2:10:415:22 11.2017seh34VERVIERS
34.5284SANTKIN HUGUES26BEL2:10:515:22 11.1918seh35EMBOURG
35.5245GUEUNING BENOÎT41BEL2:11:025:23 11.172m4036MARLOIE
36.5101JENNEN THOMAS19BELRFCL2:11:075:23 11.1719seh37BONCELLES
37.5217SPITS ALEXANDRE30BEL2:11:505:25 11.115m3038LIÈGE
38.5283BERNAR FRANÇOIS26BELLES SYMPATHISANTS DU TRAI2:12:165:26 11.0720seh39WANZE
39.5083DECHAMBRE LOUIS24BELULIEGE -2:12:315:26 11.0521seh40SOIRON
40.5118BONJEAN MICHEL30BELRCAE2:13:095:28 11.006m3041LIÈGE
41.5165FRAINEUX DENIS27BEL2:14:065:30 10.9222seh42BASSENGE
42.5077DEJONG DANIEL55BELRESA2:14:435:32 10.873m5543ESNEUX
43.5072MOMBLONA RODRÍGUEZ RAÚL21ESPULIEGE -2:14:485:32 10.8623seh44LIÈGE
44.5132GALLAROTTI LAURENT21FRAXTREM TRAIL SENLIS2:14:535:32 10.8524seh45LIÈGE
45.5293LESSIRE OLIVIER41BEL2:15:005:32 10.843m4046MARNEFFE
46.5226MARICHAL THOMAS37BELULIEGE -2:15:065:33 10.845m3547SOIRON
47.5278CSIK NICOLAS43BELRFCL ATHLÉTISME2:15:085:33 10.834m4048LIEGE
48.5193LEMARCHAL VINCENT42BEL2:15:225:33 10.825m4049PEPINSTER
49.5192LINCE SÉBASTIEN42BEL2:15:225:33 10.826m4050THEUX
50.5149FABRY RÉMI35BELMANEKE TRAIL2:15:315:34 10.806m3551DONCEEL
51.5151BALTHASART OLIVIER40BEL2:15:315:34 10.807m4052AINEFFE
52.5150ROUSSEAUX SAMUEL34BELMANEKE TRAIL2:15:335:34 10.807m3053MARNEFFE
53.5196KOSCHNICKE YVES33BELRESA2:15:475:34 10.788m3054QUEUE DU BOIS
54.5170DECHANY ROMAIN36BEL2:15:495:34 10.787m3555LATINNE
55.5068ROSIÈRE FÉLIX21BEL2:16:295:36 10.7325seh56BASTOGNE
56.5154RENARD CHRISTOPHE28BELULIEGE -2:16:515:37 10.7026seh57ANGLEUR
57.5236BARTHELEMY MICHAEL48BEL2:16:595:37 10.695m4558TENNEVILLE
58.5051SMEERS YVES51BELULIEGE -2:16:595:37 10.692m5059DOLEMBREUX
59.5208DISSAUX THOMAS30ITAULIÈGE2:17:015:37 10.699m3060LIEGE
60.5184VANASSCHEN CHRISTIAN39BEL2:17:045:38 10.688m3561FEXHE-SLINS
61.5037BINARD MARC65BELULIEGE -2:17:195:38 10.661m6562ANGLEUR
62.5027MIÉVIS KEVIN32BELJCPMF ROCOURT2:17:385:39 10.6410m3063ALLEUR
63.5112VIEIRA LARANJEIRA CÉDRIC29PRT2:17:385:39 10.6427seh64SPRIMONT
64.5233FRAITURE MANU37BELLA MILF, ELLE EST BONNE2:17:505:39 10.629m3565LIEGE
65.5234RAHIER LUC-O.34BELLA MILF, ELLE EST BONNE2:17:515:39 10.6211m3066LIÈGE
66.5182PIRENNE MARC51BEL2:18:125:40 10.593m5067AUBEL
67.5219BOLAND ANTOINE42BEL2:18:145:40 10.598m4068VILLERS LE TEMPLE
68.5042HENRARD CHRISTOPHE41BELULIEGE -2:18:425:42 10.569m4070LIÈGE
69.5071GILLET YVES62BELZATOLEFFE2:18:565:42 10.541m6071VISE
70.5279BONNEU TIMMIE42BEL2:19:175:43 10.5110m4072LIÈGE
71.5114ZANIN NICOLAS31BEL2:19:235:43 10.5012m3073SOUMAGNE
72.5031XHAARD FRANÇOIS43BEL4D+2:19:595:45 10.4611m4074ESNEUX
73.5034MEURICE JEAN-PHILIPPE46BELI LOVE RUNNING / 4 D+2:20:005:45 10.466m4575OUGREE
74.5021ZANETTIN JULIEN ROMAIN37BEL4D+ RRUN TILFF2:20:015:45 10.4610m3576SERAING
75.5066THEAU EMILE22FRAULIEGE -2:20:055:45 10.4528seh77LIÈGE
76.5067MARCHAL LUDOVIC48BELJIA2:20:105:45 10.457m4578LIEGE
77.5243LOUIS CHRISTOPHE29BEL2:20:165:45 10.4429seh79BASTOGNE
78.5113CAPITAO-MARTINS FRANÇOIS29BEL2:20:165:45 10.4430seh80SPRIMONT
79.5222RANSY MAXIME27BEL2:20:305:46 10.4231seh81BEAUFAYS
80.5030VANHAELEN PIERRE33BELMJ SPORT2:20:435:47 10.4013m3082ALLEUR
81.5191JAMINON JEROME41BEL2:20:575:47 10.3912m4083THEUX
82.5079EVRARD THÉO25BELULIEGE -2:21:105:48 10.3732seh84LIÈGE
83.5288BURETTE NATHAN26BEL2:21:195:48 10.3633seh85LIÈGE
84.5285VANDEVOORDE VALENTIN26BEL2:21:245:48 10.3534seh86ANTHEIT/WANZE
85.5136MICHEL OLIVIER49BELULIEGE -2:21:495:49 10.328m4587HOLLOGNE-SUR-GEER
86.5107MARKIEWICZ NICOLAS30BEL2:22:095:50 10.3014m3088LIÈGE
87.5082PIERRE ROMAIN28BEL2:22:205:50 10.2935seh89GRIVEGNÉE
88.5108LAHAYE BENOIT30BEL2:22:285:51 10.2815m3090QUEUE-DU-BOIS
89.5106LEVAUX NOËL52BELJOGGING ATTITUDE2:22:415:51 10.264m5091JUPILLE-SUR MEUSE
90.5105CHOJNACKI OLIVIER52BEL2:22:415:51 10.265m5092AUBEL
91.5052KALKMANN FREDERIC49BEL2:22:445:51 10.269m4593HANNUT
92.5053FERON OLIVIER51BEL2:22:585:52 10.246m50944280 HANNUT
93.5178SCHYNS FRANÇOIS28BEL2:23:025:52 10.2436seh95ANGLEUR
94.5175JULÉMONT GIL28BEL2:23:035:52 10.2437seh96EMBOURG
95.5125DIERENS DENNIS50BELJOGINATTITUDE2:23:045:52 10.237m5097VAUX-SOUS-CHÈVREMONT
96.5247DAMAS NICOLAS29BELTEAM MCP2:23:155:53 10.2238seh98BARONHEID
97.5186DUPONT LIONEL41BEL2:24:085:55 10.1613m40100NANDRIN
98.5177MEERT TANGUYBEL2:24:105:55 10.161xxx101TROOZ
99.5103ZARADZKI DAVID48BEL2:24:315:56 10.1310m45103LIEGE
100.5143KAIRIS BERTAND29BEL2:25:005:57 10.1039seh104LIEGE
101.5194LEMAL DENIS53BELON 600 BIEN2:25:045:57 10.098m50105LIEGE
102.5258DE SAUVAGE STÉPHANE35BELRHCH2:25:185:58 10.0811m35106VAUX-&-BORSET
103.40344VANSTRAELEN THIERRY24BELULIEGE -2:26:016:00 10.0340seh108WAREMME
104.5048KALFON MELVIL22FRAULIEGE -2:26:166:00 10.0141seh109LIÈGE
105.5260VAN HAESDONCK GUILLAUME23BEL2:26:446:01 9.9842seh110CHÂTELET
106.5122AL-ASSOUAD THOMAS28BEL2:26:496:02 9.9743seh111HENRI-CHAPELLE
107.5102CHIGNESSE GEOFFRAY51BEL2:27:176:03 9.949m50112MANHAY
108.5205PIRON STÉPHANE47BELZATOLEFFE2:27:196:03 9.9411m45113VISÉ
109.5058DUBOIS ANTOINE26BEL2:27:216:03 9.9444seh114LIÈGE
110.5056GONZALEZ CYRIL24BELULIEGE -2:27:216:03 9.9445seh115LIÈGE
111.5286GUSTIN NICOLAS26BELLES SYMPATHISANTS DU TRAI2:27:366:03 9.9246seh117HUY
112.5185LECLERCQ BENJAMIN42BEL2:28:226:05 9.8714m40118SERAING
113.5124NAEDENOEN FREDERIC44BELULIÈGE2:29:316:08 9.7915m40119EMBOURG
114.5085MONSEUR ARNAUD31BEL2:29:556:09 9.7716m30120HEUSY
115.5274MALOIR PIERRE58BEL2:30:236:10 9.744m55121JUPRELLE
116.5277BOSMANS ERIC52BELDD TEAM2:30:236:10 9.7410m50122LIÈGE
117.5104LHOEST BENOIT52BEL2:30:446:11 9.7111m50123BEYNE-HEUSAY
118.5183SCHOONBROODT GAETAN37BELLAMPIRIS2:30:576:12 9.7012m35124BAELEN (LG.)
119.5290NOTHOMB THOMAS28BELULIEGE -2:31:306:13 9.6647seh125GRANDCOURT (RUETTE)
120.5161LOUMRHARI LARBI62BELJCPMF OUFFET2:32:036:14 9.632m60127OUFFET
121.5134GROSJEAN BENJAMIN37BEL2:32:296:15 9.6013m35128VILLERS-AUX-TOURS
122.5135BERINGS TIM41PRT2:32:296:15 9.6016m40129LIÈGE
123.5281ROMANO RAPHAËL26BELLES SYMPATHISANTS DU TRAI2:32:596:17 9.5748seh131VOTTEM
124.5295VANSTRAELEN LAURENT30BELPMX2:33:156:17 9.5517m30132ARLON
125.5287ARCADIPANE FRANÇOIS25BELLES SYMPATHISANTS DU TRAI2:34:286:20 9.4849seh136LIÈGE
126.5044CICCARELLA TONY47ITA2:34:416:21 9.4712m45137ESNEUX
127.5223VANDENBROUCK STÉFAN48BEL2:34:456:21 9.4613m45138SAINT NICOLAS
128.5084CHELKHA SAMI28BELULIEGE -2:34:456:21 9.4650seh139LIÈGE
129.5201PIRON MAXENCE23BELHEL (HAUTE ECOLE DE LA VI2:35:046:22 9.4451seh140BASTOGNE
130.5065LEONARD HUGO22BELULIEGE -2:35:086:22 9.4452seh141BONCELLES
131.5244DI CESARE STÉPHANE44BEL2:35:106:22 9.4417m40142ESNEUX
132.5139BRÉVER JEAN-FRANÇOIS46BELRESA2:35:296:23 9.4214m45143ANDRIMONT
133.5232CHRISTOPHE THOMAS32BEL2:35:576:24 9.3918m30144NEERHEYLISSEM
134.5153TWAGIRAYEZU JEAN-TOUSSAINT38BELMANEKE TRAIL2:35:596:24 9.3914m35145VIEMME
135.5187CRUTZEN FRANÇOIS37BEL2:36:036:24 9.3815m35146AUBEL
136.5241GUERMANT SIMON19BELLA GODASSE BONCELLOISE2:36:066:24 9.3853seh147BONCELLES
137.5180MORAINE THIBAULT37BEL2:36:236:25 9.3616m35148VERVIERS
138.5172SCHIDLO ERIC42BEL2:37:146:27 9.3118m40150VISÉ
139.5130CHIARELLO PHILIPPE33BELLA RUCHE2:37:436:28 9.2819m30151LIÈGE
140.5131SOETERMANS ARNAUD33BEL2:37:436:28 9.2820m30152LIÈGE
141.5269JIDOVTSEFF BORIS44BELUNIVERSITÉ DE LIÈGE2:37:436:28 9.2819m40153LIÈGE
142.5218FENEUIL BRIEUC28BELLAMPIRIS2:37:526:29 9.2754seh154LIÈGE
143.5152DEDRY CHRISTOPHE42BELMANEKE TRAIL2:38:166:30 9.2520m40155SAINT-NICOLAS LIÈGE
144.5235DE SAUVAGE CÉDRIC32BELRHCH2:38:226:30 9.2421m30156BERLOZ
145.5171PETIT ALAIN49BELMITHRA PHARMACEUTICALS2:38:276:30 9.2415m45157VERLAINE
146.5039DELMOITIEZ STEPHANE46BEL2:39:046:32 9.2016m45158BATTICE
147.5123DARDENNE NICO28BEL2:39:086:32 9.2055seh159LA MINERIE
148.5203CONSTANT THIBAUT36BELI LOVE RUNNING LIEGE2:39:406:33 9.1717m35160CLAVIER
149.5081BOHEZ THOMAS25BELULIEGE -2:39:416:33 9.1756seh161MOMALLE
150.5204WILLEME NICOLAS37BEL2:39:426:33 9.1718m35162CLAVIER
151.5033THIRY PIERRE52BELI LOVE RUNNING LIEGE2:40:406:36 9.1112m50163LIEGE
152.5275MALOIR PHILIPPE60BEL2:42:036:39 9.033m60164JUPRELLE
153.5273WOUTERS PAUL56BELRCAE AVIRON2:42:166:39 9.025m55165LIEGE
154.5070LEGRAND LUC57BELZATOLEFFE2:42:246:40 9.026m55166VISE
155.5069SCHYNS EGIDE60BELZATOLEFFE2:42:426:41 9.004m60167AUBEL
156.5158CONDÉ GILLES33BELULIEGE -2:43:026:41 8.9822m30168LIÈGE
157.5074KLAIKENS OLIVIER31BEL2:43:446:43 8.9423m30169SERAING
158.5225DURVIAUX MATHIEU34BEL2:43:466:43 8.9424m30170MODAVE
159.5054WILLEMART XAVIER51BEL2:44:056:44 8.9213m50174HANNUT
160.5238GHAMMAD SAMY19BELULIEGE -2:44:446:46 8.8957seh175LIÈGE
161.5061HEKLINGER SYLVAIN48FRAJCPMF ROCOURT2:45:256:47 8.8517m45176ALLEUR
162.5097FORTEMPS JIMMY41BEL2:45:366:48 8.8421m40177SAROLAY
163.5060GASPARD CHRISTIAN55BEL2:45:376:48 8.847m55178TOURINNE
164.5088BRAUWERS LUDOVIC31BEL2:45:466:48 8.8325m30179OUGREE
165.5035VANLANGENAKKER STÉPHANE44BEL2:46:046:49 8.8222m40181SAIVE
166.5036DELVAUX JEAN-MARC39BEL2:46:046:49 8.8219m35182SAIVE
167.5168PETITJEAN THOMAS43BEL2:46:136:49 8.8123m40183HEMPTINE
168.5169DELCOURT ANTOINE47BEL2:46:146:49 8.8118m45184LIÈGE
169.5148BERTRAND PATRICK51BEL2:46:376:50 8.7914m50185VIEMME (FAIMES)
170.5147VOLDERS FRANCIS55BELJCPMF FAIMES2:46:386:50 8.798m55186FAIMES
171.5159DEVILLET GUÉNAËL47BELULIEGE -2:46:526:51 8.7719m45188ANGLEUR
172.5200GUIDI LORIS37BEL2:47:306:52 8.7420m35190BONCELLES
173.5127DEMEUSY BASTIEN24FRAULIEGE -2:47:546:53 8.7258seh191LIÈGE
174.5216FALCON RAMIREZ RUBEN37BEL2:47:556:53 8.7221m35192HERSTAL
175.5119NZAMBA MAIC29COG2:48:166:54 8.7059seh193GRÂCE HOLLOGNE
176.5086FRISON DAVID48BELRESA2:49:036:56 8.6620m45194ALLEUR
177.5029THIRION JEAN-FRANÇOIS57BELAC NEUPRÉ2:49:076:56 8.669m55195FLÉMALLE
178.5190GERARD CHRISTOPHE38BELRESA2:50:046:59 8.6122m35197JEHAY
179.5214CANIVET GREGORY40BEL2:50:046:59 8.6124m40198LIEGE
180.5129BAUDINET ROBERT27BELULIEGE -2:50:216:59 8.5960seh199STEMBERT
181.5231MARENNE FLAVIEN33BELULIEGE -2:50:337:00 8.5826m30200JETTE
182.5087RUTH MICHEL51BELRESA2:50:527:01 8.5715m50201ALLEUR
183.5268PALUMBO PINO64ITA2:51:047:01 8.565m60202LIEGE
184.5254SIMON GIL44BELRESA2:51:177:02 8.5525m40203VISÉ
185.5255BRUWIER PIERRE54BELZATOLEFFE2:51:177:02 8.5516m50204ARGENTEAU
186.5028FRIEDRICH JEAN-LUC55BELSER ATHL2:51:277:02 8.5410m55205SERAING
187.5267DI GIACOMO MAURICE52BEL2:51:507:03 8.5217m50206LIEGE
188.5146RUGGIERI MIRKO44BEL2:52:337:05 8.4826m40208HERSTAL
189.5128THOUMSIN BERTRAND26BELULIEGE -2:52:567:06 8.4761seh209LIÈGE
190.5116GARROY CHRISTOPHE44BEL2:55:067:11 8.3627m40210BEAUFAYS
191.5145FERON JEAN-MARC48BEL2:55:197:12 8.3521m45211HORION-HOZÉMONT
192.5144MULKENS THÉO19BELULIEGE -2:56:087:14 8.3162seh212VISÉ
193.5025CAMPOS BRAZO RAFAEL57BEL2:56:157:14 8.3111m55213JUPRELLE
194.5221BRANS ALAIN60BELULIEGE -2:56:547:15 8.286m60214BEAUFAYS
195.5242D'ATTARDI FRÉDÉRIC51BEL2:56:557:16 8.2818m502154920 - SOUGNÉ-REMOUCHAMPS
196.5099ROBERT YVES51BELRESA2:57:347:17 8.2419m50217OMBRET
197.5024CAMPOS BRAZO ABELARDO52BEL2:57:387:17 8.2420m50219VISÉ
198.5117JENNEN PATRICK54NLD2:58:037:18 8.2221m50221BONCELLES
199.5109BRISY KENNY30BEL2:58:327:19 8.2027m30222HERVE
200.5110DEFRENNE LAURENT32BEL2:58:347:20 8.2028m30223FAIMES
201.5075DELILLE BRUNO48FRAULIEGE -3:00:257:24 8.1122m45225LIÈGE
202.5126ANDRÉ PAUL29BELULIEGE -3:01:097:26 8.0863seh226LIÈGE
203.5280HERMAN DAVID45BEL3:01:297:27 8.0723m45227ESNEUX
204.5220WENGLER SERGE34LUX3:02:227:29 8.0329m30228BOCKHOLTZ
205.5142BARBOU QUENTIN25FRA3:03:237:31 7.9864seh230LIÈGE
206.5249DE BRANDT NIELS30BEL3:03:247:31 7.9830m30231LOKEREN
207.5291ZIAN ANIS29BEL3:04:047:33 7.9565seh233EMBOURG
208.5141DE ROP OLIVIER31BEL3:04:077:33 7.9531m30234ESNEUX
209.5115LEJEUNE ERIC53BEL3:04:157:34 7.9522m50235BEAUFAYS
210.5256DE LAET CHRISTIAN46BELRESA3:04:337:34 7.9324m45237TAVIER
211.5228KEMPENEERS MICHEL53BEL3:05:357:37 7.8923m50238TROOZ
212.5229OFFERMAN CHARLY46BEL3:05:377:37 7.8925m45239DOLEMBREUX
213.5140DUFERT ROMAIN26BEL3:05:517:37 7.8866seh240AUBEL
214.5163MICHIELIN ERIC56BEL3:05:587:38 7.8712m55241LIÈGE
215.5073BLANCHY JEAN-LOUP68BELLGS3:06:427:40 7.842m65242SAINT VINCENT
216.5174RENNESON GILLES40BELMITHRA PHARMACEUTICALS3:06:477:40 7.8428m40243ANS
217.5207GAUTIER AXEL49BELULIEGE -3:07:187:41 7.8226m45244BRUXELLES
218.5173DURY CHRISTOPHE43BELJCHSH3:10:337:49 7.6829m40246JONCRET
219.5091WINANDTS SÉBASTIEN43BEL3:10:357:49 7.6830m40248LIÈGE
220.5195PIERRE BONNET62BELULIEGE -3:12:077:53 7.627m60249LIEGE
221.5209DEQUIEDT CLEMENT30BEL3:12:187:53 7.6132m30251LIEGE
222.5181COP THOMAS35BEL3:12:497:55 7.5923m35252CLERMONT SOUS HUY
223.5156FUMAROLA FABRICE51BEL3:14:147:58 7.5424m50254MILMORT
224.5212DEQUIEDT FRANCK52FRA3:15:218:01 7.4925m50256GEMBLOUX
225.5259AUDIFAX UWITONZE36BEL3:17:038:05 7.4324m35257LIEGE
226.5210GROOTAERS THIERRY47BEL3:18:198:08 7.3827m45258HACCOURT
227.5263COMINGS PATRICK64BEL3:20:348:14 7.308m60260
228.5189SCINTA VINCENT27BELULIEGE -3:22:448:19 7.2267seh261LIÈGE
229.5264SONY EVAN31BEL3:24:238:23 7.1633m30263LIÈGE
230.5271ROZENBLAT STEPHANE57BEL3:28:018:32 7.0413m55264BUZET
231.5272PETIT PASCAL49BEL3:28:038:32 7.0428m45265LIEGE
232.5062PAULAUSKAS IVAN53BELULIEGE -3:30:098:37 6.9726m50266BONCELLES
233.5090HOFFMANN JEAN-LUC57BELZATAC LIÈGE3:31:398:41 6.9214m55268LIÈGE
234.5166LEGRAND ANDRÉ55BEL3:35:078:49 6.8115m55270VERVIERS
235.5164VOSS MICHEL51BEL3:35:148:50 6.8027m50271THEUX
DNF5270DOBROWOLSKI JEAN35FRAm35LIÈGE
DNF5257MUNTEAN LUCIAN ALEXANDRU25ROUCSM SUCEAVAsehANDERLECHT
DNF5262SCAILLET GEOFFREY25BELsehCHÊNÉE
DNF: did not finish; DSQ: disqualified; Speed in km/h
Page: [1]